COSMOS 1275 DEB, 13456

Orbit data source: Space-Track

COSMOS 1275 DEB, 13456 is space debris in LEO originally from a launch on Thu, 04 Jun 1981 UTC launched from the Plesetsk Missile And Space Complex (PKMTR). Debris objects in space refer to the collection of defunct objects orbiting the Earth. Examples of debris include non-operational satellites, rocket bodies, and fragments generated from explosions, collisions, or faulty payload assembly.

Loading next visibility...
Identifier
13456, 1981-053FC
Orbit
LEO
Country
Flag of CISCIS
Related business
Manufacturer
Unknown
Mission
Spacecraft
Bus & Motor
Unknown
Mass
Unknown
Launch date (UTC)
1981-06-04 (45 years ago)
Launch vehicle
Unknown
Launch site
Plesetsk Missile And Space Complex (PKMTR)
Object type
Payload
Rocket body
Debris
Shape & HBR
Unknown shape, 0.1 m
Radar Cross Section
Medium (>0.1 m² and <1 m²)

Expand to show TLE details & history
Last TLE update: 3 days ago

TLE from 3 days ago
0 COSMOS 1275 DEB
1 13456U 81053FC  26170.98145512  .00001934  00000-0  14681-2 0  9996
2 13456  82.8293 359.5051 0147268  46.9823 103.8602 13.88404608212558
Epoch: 2026-06-19T23:33Z
TLE epoch observation values (Epoch: 2026-06-19T23:33:17.722Z)
Latitude
27.3316°
Longitude
-85.73015°
Altitude
964.867 km
Speed
7.358 km/s
True Right ascension
11h 43m 11s
True Declination
27° 11' 44"
Sunlit
Object was in daylight at epoch
Visualization orbit readout
Latitude
Unknown
Longitude
Unknown
Altitude
Unknown
Speed
Unknown
Apparent Right ascension
Unknown
Apparent Declination
Unknown
Sunlit
N/A
Visualization observer readout
Local Sidereal Time
06:03:45
Azimuth
Unknown
Elevation
Unknown
Doppler factor
Unknown
Orbital elements
Apogee altitude
1,039.006 km
Perigee altitude
823.715 km
Semi-major axis
7,309.498 km
Eccentricity
0.01473
Inclination
82.8293°
RAAN
359.5051°
Arg. of periapsis
46.9823°
True anomaly
105.49122°
Mean anomaly
103.8602°
Eccentric anomaly
104.67645°
Mean motion
3.47306 °/min
Orbital period
103.66 mins
BSTAR
0.0014681
Loading maneuver chart data...
Computing Atmospheric mass density...
Loading historical data...
Loading historical data...
Loading historical data...
Loading historical data...
Loading historical data...
Loading historical data...
Loading historical data...

Documentation

Showing up to 5 results
|